Home > Time Zones > World Clock > Weather > Mali > Bamako > Past weeks

Flag for Mali Weather past 2 weeks in Bamako, Mali

Now
93 °F

Sunny.


Feels Like: 89 °F
Forecast: N/A
Wind: 2 mph from North

Location: Bamako / Senou

Current Time: Feb 1, 2015 at 3:21:00 PM

Latest Report: Feb 1, 2015 at 2:30 PM


Visibility: 10 mi

Pressure: 29.92 "Hg

Humidity: 7%

Dew point: 19 °F

Location of BamakoLocation

Historic Weather in Bamako — Graph

°F

Bamako temperature yesterday

Maximum temperature yesterday: 93 °F (at 3:00 PM)
Minimum temperature yesterday: 64 °F (at 4:00 AM)
Average temperature yesterday: 78 °F

Past Weeks' High & Low Weather Summary

 TemperatureHumidityPressure
High95 °F (Jan 19, 4:30 PM)56% (Jan 19, 3:30 AM)30.09 "Hg (Jan 19, 3:30 AM)
Low57 °F (Jan 19, 6:30 AM)5% (Jan 30, 2:00 PM)29.83 "Hg (Jan 20, 4:00 PM)
Average77 °F17%29.98 "Hg
* Reported Jan 17 2:00 PM — Feb 1 2:00 PM, Bamako, Weather by CustomWeather, © 2014

Note: Actual official high and low records may vary slightly from our data, if they occured in-between our weather recording intervals... More about our weather records

Advertising

Bamako weather history for previous 24 hours

 ConditionsComfort  
Time TempWeatherWind HumidityBarometerVisibility
2:00 PM
Feb 1
93 °FSunny.3 mph7%29.92 "Hg10 mi
1:30 PM91 °FPassing clouds.6 mph7%29.95 "HgN/A
1:00 PM90 °FSunny.6 mph8%29.95 "Hg10 mi
12:00 PM86 °FPassing clouds.9 mph8%29.98 "HgN/A
11:00 AM82 °FPassing clouds.9 mph10%30.01 "HgN/A
10:30 AM82 °FSunny.10 mph9%30.01 "Hg10 mi
9:30 AM77 °FPassing clouds.6 mph13%30.01 "HgN/A
9:00 AM73 °FSunny.7 mph13%30.01 "Hg10 mi
8:30 AM72 °FPassing clouds.5 mph19%29.98 "HgN/A
8:00 AM63 °FSunny.No wind37%29.98 "Hg10 mi
7:30 AM61 °FSunny.No wind29%29.98 "Hg10 mi
7:00 AM63 °FSunny.3 mph27%29.95 "Hg10 mi
6:30 AM64 °FClear.3 mph22%29.95 "Hg10 mi
6:00 AM66 °FClear.5 mph21%29.95 "Hg10 mi
5:30 AM64 °FClear.7 mph24%29.92 "Hg10 mi
5:00 AM64 °FClear.7 mph26%29.92 "Hg10 mi
4:30 AM64 °FClear.6 mph24%29.92 "Hg10 mi
4:00 AM66 °FPassing clouds.5 mph22%29.95 "HgN/A
3:30 AM68 °FClear.5 mph23%29.95 "Hg10 mi
2:30 AM70 °FClear.7 mph23%29.95 "Hg10 mi
2:00 AM70 °FClear.6 mph21%29.98 "Hg10 mi
1:00 AM66 °FClear.6 mph28%29.98 "Hg10 mi
12:30 AM64 °FClear.3 mph37%29.98 "Hg10 mi
12:00 AM66 °FClear.3 mph30%29.98 "Hg10 mi
11:30 PM
Jan 31
68 °FClear.3 mph24%30.01 "Hg10 mi
11:00 PM68 °FClear.3 mph30%30.01 "Hg10 mi
10:30 PM70 °FClear.2 mph23%30.01 "Hg10 mi
10:00 PM73 °FClear.2 mph20%29.98 "Hg10 mi
9:30 PM72 °FClear.6 mph22%29.98 "Hg10 mi
8:30 PM73 °FClear.2 mph19%29.95 "Hg10 mi
8:00 PM73 °FClear.5 mph19%29.95 "Hg10 mi
7:30 PM75 °FClear.3 mph21%29.92 "Hg10 mi
7:00 PM77 °FClear.1 mph22%29.92 "Hg10 mi
6:30 PM88 °FSunny.2 mph11%29.92 "Hg10 mi
6:00 PM93 °FSunny.No wind8%29.92 "Hg10 mi
5:30 PM93 °FSunny.1 mph7%29.92 "Hg10 mi
5:00 PM93 °FSunny.2 mph7%29.89 "Hg10 mi
4:30 PM93 °FPassing clouds.6 mph7%29.89 "HgN/A
4:00 PM93 °FPassing clouds.7 mph7%29.89 "HgN/A
3:30 PM93 °FPassing clouds.6 mph8%29.92 "HgN/A
3:00 PM93 °FSunny.2 mph7%29.92 "Hg10 mi
Weather by CustomWeather, © 2014

See weather overviewHow to use our weather pages